Location: El Carrer d�Abaix
(41.5797°N, 2.1791°E)
Time: 10:09:13
(UTC+00:00)

STARLINK-1378 - Pass Details

Date: 07 October 2020
Orbit: 549 x 550 km, 53.0° (Epoch: 21 October)

Event Time Altitude Azimuth Distance (km) Brightness Sun altitude
Exits shadow 04:26:51 12° 327° (NNW) 1,716 5.9 -17.2°
Maximum altitude 04:29:06 17° 2° (N) 1,445 5.9 -16.8°
Drops below altitude 10° 04:31:49 10° 44° (NE) 1,825 7.0 -16.3°
Sets 04:34:44 0° 65° (ENE) 2,718 8.6 -15.8°
